EW1160 Weather Reports


Display with metric or nautical units.
time (UTC)temp
F
wind
direction
speed
MPH
gust
MPH
rain 1hr
in
rain 24hr
in
rain mn
in
humidity
%
barometer
mb
20260831220119 72 359 0.0 0.0 0.00 0.39 0.18 91 1012.2
20260831214600 73 162 0.0 0.0 0.00 0.44 0.18 91 1012.4
20260831213048 73 359 0.0 0.0 0.00 0.44 0.18 91 1012.0
20260831211555 73 162 0.0 0.0 0.00 0.44 0.18 91 1012.0
20260831210046 73 162 0.0 0.0 0.00 0.44 0.18 91 1011.7
20260831204552 73 162 0.0 0.0 0.00 0.47 0.18 92 1011.4
20260831203045 72 187 0.0 0.0 0.01 0.47 0.18 93 1011.1
20260831201542 71 359 0.0 2.0 0.02 0.47 0.18 93 1011.0
20260831200045 70 160 0.0 1.0 0.02 0.47 0.18 93 1011.4
20260831194541 71 147 0.0 3.0 0.03 0.57 0.18 93 1012.3
20260831193033 71 359 0.0 0.0 0.03 0.56 0.17 93 1013.0
20260831191519 71 258 0.0 0.0 0.03 0.56 0.16 92 1013.2
20260831190002 71 359 0.0 0.0 0.03 0.56 0.16 92 1012.7
20260831184501 72 359 0.0 0.0 0.02 0.62 0.15 91 1014.0
20260831183043 73 262 0.0 0.0 0.01 0.61 0.14 90 1014.7
20260831181542 73 359 0.0 0.0 0.00 0.60 0.13 91 1014.2
20260831180039 73 359 0.0 1.0 0.00 0.60 0.13 91 1014.4
20260831174525 73 219 0.0 2.0 0.00 0.61 0.13 92 1014.7
20260831173007 73 359 0.0 0.0 0.00 0.61 0.13 93 1014.0
20260831171506 72 168 0.0 0.0 0.00 0.61 0.13 93 1013.9
20260831170046 72 169 0.0 0.0 0.00 0.61 0.13 93 1014.3
20260831164556 72 169 0.0 0.0 0.00 0.62 0.13 93 1014.7
20260831163027 72 170 0.0 0.0 0.00 0.62 0.13 93 1014.8
20260831161527 72 168 0.0 0.0 0.00 0.62 0.13 93 1015.0
20260831160015 72 359 0.0 0.0 0.00 0.62 0.13 93 1015.2
20260831154513 72 170 0.0 0.0 0.10 0.70 0.13 93 1015.0
20260831153010 71 170 0.0 0.0 0.10 0.70 0.13 92 1014.6
20260831151512 72 166 0.0 0.0 0.10 0.70 0.13 92 1014.2
20260831150011 72 168 0.0 0.0 0.10 0.70 0.13 92 1014.0
20260831144514 72 170 0.0 0.0 0.00 0.60 0.03 92 1014.0
20260831143017 72 170 0.0 0.0 0.00 0.60 0.03 92 1013.5
20260831141507 72 166 0.0 1.0 0.00 0.60 0.03 92 1013.6
20260831140048 72 172 0.0 0.0 0.00 0.60 0.03 92 1013.6
20260831134553 72 178 0.0 0.0 0.00 0.70 0.03 92 1013.5
20260831133029 72 159 0.0 0.0 0.00 0.70 0.03 93 1013.1
20260831131525 71 168 0.0 0.0 0.00 0.70 0.03 94 1013.2
20260831130006 70 166 0.0 0.0 0.00 0.70 0.03 94 1013.2
20260831124504 69 167 0.0 0.0 0.00 0.74 0.03 94 1013.3
20260831123046 69 166 0.0 0.0 0.00 0.74 0.03 94 1012.9
20260831121545 69 359 0.0 0.0 0.00 0.74 0.03 94 1012.8
20260831120036 69 359 0.0 0.0 0.00 0.74 0.03 94 1013.0
20260831114532 69 166 0.0 0.0 0.00 0.74 0.03 94 1013.9
20260831113007 69 359 0.0 0.0 0.00 0.74 0.03 94 1014.0
20260831111506 69 166 0.0 0.0 0.00 0.74 0.03 94 1014.0
20260831110053 68 164 0.0 0.0 0.00 0.74 0.03 94 1013.8
20260831104557 69 164 0.0 0.0 0.00 0.74 0.03 93 1013.9
20260831103040 69 166 0.0 0.0 0.00 0.74 0.03 94 1013.7
20260831101542 69 166 0.0 0.0 0.00 0.74 0.03 94 1013.6
20260831100041 69 166 0.0 0.0 0.00 0.74 0.03 93 1013.6
20260831094535 69 166 0.0 0.0 0.00 0.75 0.03 93 1013.5
20260831093045 69 359 0.0 0.0 0.00 0.75 0.03 93 1013.5
20260831091534 69 166 0.0 0.0 0.02 0.75 0.03 93 1013.5
20260831090040 69 168 0.0 0.0 0.03 0.75 0.03 93 1013.5
20260831084533 69 167 0.0 0.0 0.03 0.76 0.03 93 1013.3
20260831083016 69 168 0.0 0.0 0.03 0.76 0.03 93 1013.4
20260831081515 69 166 0.0 0.0 0.01 0.74 0.01 93 1013.4
20260831080057 69 359 0.0 0.0 0.00 0.73 0.00 93 1013.3
20260831074556 68 166 0.0 0.0 0.00 0.73 0.00 93 1013.3
20260831073038 68 166 0.0 0.0 0.00 0.73 0.00 93 1013.3
20260831071535 68 166 0.0 0.0 0.00 0.73 0.00 93 1013.6
20260831070016 68 359 0.0 0.0 0.00 0.73 0.00 93 1013.9
20260831064515 68 165 0.0 0.0 0.00 0.73 0.00 93 1013.9
20260831063057 68 164 0.0 0.0 0.00 0.73 0.00 93 1013.9
20260831061557 68 155 0.0 0.0 0.00 0.73 0.00 93 1013.9
20260831060044 68 154 0.0 0.0 0.00 0.73 0.00 93 1014.0
20260831054535 68 154 0.0 0.0 0.00 0.73 0.00 93 1014.2
20260831053022 68 158 0.0 0.0 0.00 0.73 0.00 93 1014.3
20260831051518 68 154 0.0 0.0 0.00 0.73 0.00 93 1014.2
20260831050100 68 160 0.0 0.0 0.00 0.73 0.00 92 1014.4
20260831044614 68 163 0.0 0.0 0.00 0.73 0.00 92 1014.2
20260831043044 68 165 0.0 0.0 0.00 0.73 0.00 92 1014.3
20260831041550 67 359 0.0 0.0 0.00 0.73 0.00 93 1014.2
20260831040022 67 171 0.0 2.0 0.00 0.73 0.00 93 1014.3
20260831034519 67 163 0.0 0.0 0.00 0.73 0.73 93 1014.1
20260831033002 66 161 0.0 0.0 0.00 0.73 0.73 93 1014.0
20260831031504 66 161 0.0 0.0 0.00 0.73 0.73 93 1014.0
20260831030044 66 156 0.0 0.0 0.00 0.73 0.73 93 1014.0
20260831024543 66 168 0.0 0.0 0.00 0.73 0.73 93 1014.0
20260831023026 66 165 0.0 0.0 0.00 0.73 0.73 93 1014.1
20260831021525 65 168 0.0 0.0 0.00 0.73 0.73 93 1014.0
20260831020013 65 156 0.0 0.0 0.00 0.73 0.73 93 1014.1
20260831014513 65 158 0.0 0.0 0.00 0.73 0.73 93 1014.2
20260831013012 65 156 0.0 0.0 0.00 0.73 0.73 93 1014.2
20260831011511 66 359 0.0 0.0 0.00 0.73 0.73 93 1014.3
20260831010011 66 152 0.0 0.0 0.00 0.73 0.73 93 1014.2
20260831004511 66 155 0.0 1.0 0.01 0.73 0.73 93 1014.0
20260831003010 66 157 0.0 0.0 0.06 0.73 0.73 93 1013.9
20260831001510 65 162 0.0 4.0 0.08 0.73 0.73 93 1013.7
20260831000052 65 158 0.0 3.0 0.11 0.73 0.73 93 1013.7
20260830234600 66 170 0.0 3.0 0.10 0.72 0.72 93 1014.2
20260830233034 66 172 0.0 6.0 0.09 0.67 0.67 93 1014.8
20260830231534 66 160 0.0 4.0 0.09 0.65 0.65 93 1015.3
20260830230017 66 166 0.0 2.0 0.09 0.62 0.62 93 1015.3
20260830224516 67 164 0.0 1.0 0.10 0.62 0.62 93 1015.6
20260830223114 66 164 0.0 1.0 0.09 0.57 0.57 93 1015.5
20260830221558 66 180 0.0 0.0 0.08 0.56 0.56 93 1015.3